| time (UTC) | temp F | wind direction | speed MPH | gust MPH | rain 1hr in | rain 24hr in | rain mn in | humidity % | barometer mb |
| 20260903031018 | 56 | 207 | 2.0 | 12.0 | 0.08 | 0.71 | 0.09 | 99 | 1008.2 |
| 20260903030956 | 56 | 207 | 3.0 | 12.0 | 0.08 | 0.71 | 0.09 | 99 | 1008.2 |
| 20260903030511 | 56 | 177 | 5.0 | 12.0 | 0.06 | 0.63 | 0.07 | 99 | 1008.1 |
| 20260903030439 | 56 | 177 | 6.0 | 12.0 | 0.06 | 0.63 | 0.07 | 99 | 1008.1 |
| 20260903030004 | 56 | 242 | 5.0 | 9.0 | 0.06 | 0.63 | 0.06 | 99 | 1007.9 |
| 20260903025922 | 57 | 242 | 7.0 | 9.0 | 0.06 | 0.63 | 0.06 | 99 | 1008.0 |
| 20260903025457 | 57 | 214 | 5.0 | 16.0 | 0.02 | 0.63 | 0.05 | 98 | 1007.9 |
| 20260903025406 | 57 | 214 | 3.0 | 16.0 | 0.02 | 0.63 | 0.05 | 98 | 1007.9 |
| 20260903024950 | 57 | 173 | 10.0 | 16.0 | 0.02 | 0.63 | 0.05 | 98 | 1007.8 |
| 20260903024848 | 57 | 173 | 10.0 | 16.0 | 0.02 | 0.63 | 0.03 | 98 | 1007.9 |
| 20260903024443 | 57 | 194 | 6.0 | 16.0 | 0.00 | 0.63 | 0.00 | 98 | 1007.8 |
| 20260903023936 | 57 | 211 | 7.0 | 15.0 | 0.00 | 0.63 | 0.00 | 98 | 1007.7 |
| 20260903023814 | 57 | 197 | 1.0 | 15.0 | 0.00 | 0.63 | 0.00 | 98 | 1007.7 |
| 20260903023429 | 57 | 186 | 9.0 | 15.0 | 0.00 | 0.63 | 0.00 | 98 | 1007.7 |
| 20260903023257 | 57 | 204 | 9.0 | 15.0 | 0.00 | 0.63 | 0.00 | 98 | 1007.8 |
| 20260903022922 | 57 | 212 | 8.0 | 15.0 | 0.00 | 0.63 | 0.00 | 97 | 1007.7 |
| 20260903022740 | 57 | 190 | 9.0 | 15.0 | 0.00 | 0.63 | 0.00 | 97 | 1007.8 |
| 20260903022415 | 57 | 190 | 10.0 | 15.0 | 0.00 | 0.63 | 0.00 | 97 | 1007.8 |
| 20260903022223 | 57 | 253 | 11.0 | 15.0 | 0.00 | 0.63 | 0.00 | 97 | 1007.8 |
| 20260903021706 | 57 | 208 | 10.0 | 14.0 | 0.00 | 0.63 | 0.00 | 97 | 1007.7 |
| 20260903021401 | 57 | 205 | 10.0 | 14.0 | 0.00 | 0.63 | 0.00 | 97 | 1007.8 |
| 20260903021149 | 57 | 169 | 9.0 | 14.0 | 0.00 | 0.63 | 0.00 | 97 | 1007.7 |
| 20260903020856 | 57 | 219 | 6.0 | 14.0 | 0.00 | 0.63 | 0.00 | 97 | 1007.7 |
| 20260903020632 | 57 | 261 | 8.0 | 14.0 | 0.00 | 0.63 | 0.00 | 97 | 1007.7 |
| 20260903020347 | 57 | 172 | 8.0 | 11.0 | 0.00 | 0.63 | 0.00 | 96 | 1007.7 |
| 20260903020115 | 58 | 215 | 8.0 | 18.0 | 0.00 | 0.63 | 0.00 | 96 | 1007.8 |
| 20260903015840 | 58 | 215 | 10.0 | 18.0 | 0.00 | 0.63 | 0.00 | 96 | 1007.8 |
| 20260903015559 | 58 | 208 | 9.0 | 18.0 | 0.00 | 0.63 | 0.00 | 96 | 1007.8 |
| 20260903015041 | 58 | 182 | 10.0 | 18.0 | 0.00 | 0.63 | 0.00 | 96 | 1007.8 |
| 20260903014524 | 58 | 163 | 14.0 | 18.0 | 0.00 | 0.63 | 0.00 | 96 | 1007.8 |
| 20260903014319 | 58 | 217 | 9.0 | 16.0 | 0.00 | 0.63 | 0.00 | 96 | 1007.8 |
| 20260903014007 | 58 | 261 | 7.0 | 16.0 | 0.00 | 0.63 | 0.00 | 96 | 1007.9 |
| 20260903013812 | 58 | 294 | 5.0 | 16.0 | 0.00 | 0.63 | 0.00 | 95 | 1007.9 |
| 20260903013450 | 58 | 193 | 10.0 | 16.0 | 0.00 | 0.63 | 0.00 | 95 | 1007.8 |
| 20260903013305 | 58 | 254 | 9.0 | 16.0 | 0.00 | 0.63 | 0.00 | 95 | 1007.8 |
| 20260903012933 | 59 | 254 | 9.0 | 16.0 | 0.00 | 0.63 | 0.00 | 95 | 1007.7 |
| 20260903012758 | 59 | 187 | 14.0 | 16.0 | 0.00 | 0.63 | 0.00 | 95 | 1007.7 |
| 20260903012416 | 59 | 172 | 6.0 | 12.0 | 0.00 | 0.63 | 0.00 | 95 | 1007.6 |
| 20260903012251 | 59 | 215 | 10.0 | 12.0 | 0.00 | 0.63 | 0.00 | 95 | 1007.7 |
| 20260903011859 | 59 | 205 | 8.0 | 12.0 | 0.00 | 0.63 | 0.00 | 95 | 1007.6 |
| 20260903011744 | 59 | 186 | 9.0 | 12.0 | 0.00 | 0.63 | 0.00 | 95 | 1007.6 |
| 20260903011342 | 58 | 173 | 2.0 | 12.0 | 0.00 | 0.63 | 0.00 | 95 | 1007.7 |
| 20260903011237 | 58 | 205 | 8.0 | 12.0 | 0.00 | 0.63 | 0.00 | 95 | 1007.6 |
| 20260903010825 | 59 | 231 | 5.0 | 11.0 | 0.00 | 0.63 | 0.00 | 94 | 1007.6 |
| 20260903010730 | 59 | 196 | 6.0 | 11.0 | 0.00 | 0.63 | 0.00 | 94 | 1007.6 |
| 20260903010308 | 59 | 218 | 3.0 | 11.0 | 0.00 | 0.63 | 0.00 | 94 | 1007.6 |
| 20260903010223 | 59 | 232 | 6.0 | 11.0 | 0.00 | 0.63 | 0.00 | 94 | 1007.6 |
| 20260903005751 | 59 | 212 | 5.0 | 10.0 | 0.00 | 0.63 | 0.00 | 94 | 1007.6 |
| 20260903005716 | 59 | 212 | 7.0 | 10.0 | 0.00 | 0.63 | 0.00 | 94 | 1007.6 |
| 20260903005234 | 59 | 221 | 8.0 | 10.0 | 0.00 | 0.63 | 0.00 | 93 | 1007.6 |
| 20260903005209 | 59 | 240 | 8.0 | 10.0 | 0.00 | 0.63 | 0.00 | 93 | 1007.6 |
| 20260903004717 | 59 | 207 | 6.0 | 10.0 | 0.00 | 0.63 | 0.00 | 93 | 1007.4 |
| 20260903004702 | 60 | 207 | 7.0 | 10.0 | 0.00 | 0.63 | 0.00 | 93 | 1007.4 |
| 20260903004155 | 60 | 243 | 6.0 | 10.0 | 0.00 | 0.63 | 0.00 | 93 | 1007.4 |
| 20260903003642 | 60 | 182 | 7.0 | 10.0 | 0.00 | 0.63 | 0.00 | 93 | 1007.5 |
| 20260903003141 | 61 | 243 | 7.0 | 9.0 | 0.00 | 0.63 | 0.00 | 93 | 1007.3 |
| 20260903003125 | 61 | 243 | 7.0 | 9.0 | 0.00 | 0.63 | 0.00 | 93 | 1007.3 |
| 20260903002634 | 61 | 235 | 4.0 | 10.0 | 0.00 | 0.63 | 0.00 | 94 | 1007.3 |
| 20260903002609 | 61 | 235 | 4.0 | 10.0 | 0.00 | 0.63 | 0.00 | 94 | 1007.4 |
| 20260903002127 | 62 | 198 | 9.0 | 10.0 | 0.00 | 0.63 | 0.00 | 95 | 1007.4 |
| 20260903002051 | 62 | 198 | 5.0 | 10.0 | 0.00 | 0.63 | 0.00 | 95 | 1007.4 |
| 20260903001620 | 62 | 235 | 3.0 | 10.0 | 0.00 | 0.63 | 0.00 | 95 | 1007.2 |
| 20260903001534 | 62 | 217 | 4.0 | 10.0 | 0.00 | 0.63 | 0.00 | 95 | 1007.2 |
| 20260903001113 | 62 | 208 | 10.0 | 10.0 | 0.00 | 0.63 | 0.00 | 96 | 1007.2 |
| 20260903001017 | 62 | 182 | 5.0 | 8.0 | 0.00 | 0.63 | 0.00 | 97 | 1007.2 |
| 20260903000606 | 62 | 205 | 6.0 | 8.0 | 0.00 | 0.63 | 0.00 | 98 | 1007.2 |
| 20260903000501 | 61 | 205 | 4.0 | 8.0 | 0.00 | 0.63 | 0.00 | 98 | 1007.2 |
| 20260903000059 | 61 | 158 | 7.0 | 9.0 | 0.00 | 0.63 | 0.63 | 98 | 1007.1 |
| 20260902235551 | 60 | 208 | 4.0 | 9.0 | 0.00 | 0.63 | 0.63 | 98 | 1007.1 |
| 20260902235426 | 60 | 208 | 5.0 | 9.0 | 0.00 | 0.63 | 0.63 | 98 | 1007.1 |
| 20260902235044 | 60 | 193 | 7.0 | 9.0 | 0.00 | 0.63 | 0.63 | 99 | 1007.1 |
| 20260902234910 | 60 | 193 | 7.0 | 9.0 | 0.00 | 0.63 | 0.63 | 99 | 1007.1 |
| 20260902234538 | 60 | 224 | 7.0 | 9.0 | 0.00 | 0.63 | 0.63 | 99 | 1007.0 |
| 20260902234352 | 60 | 229 | 4.0 | 9.0 | 0.00 | 0.63 | 0.63 | 99 | 1007.0 |
| 20260902234030 | 61 | 229 | 5.0 | 8.0 | 0.00 | 0.63 | 0.63 | 100 | 1007.0 |
| 20260902233835 | 61 | 0 | 0.0 | 8.0 | 0.00 | 0.63 | 0.63 | 100 | 1006.9 |
| 20260902233524 | 61 | 263 | 2.0 | 8.0 | 0.00 | 0.63 | 0.63 | 100 | 1006.9 |
| 20260902233319 | 61 | 0 | 0.0 | 8.0 | 0.00 | 0.63 | 0.63 | 100 | 1006.9 |
| 20260902233017 | 61 | 0 | 0.0 | 5.0 | 0.00 | 0.63 | 0.63 | 100 | 1006.9 |
| 20260902232802 | 60 | 197 | 2.0 | 5.0 | 0.00 | 0.63 | 0.63 | 100 | 1006.8 |
| 20260902232510 | 60 | 0 | 0.0 | 5.0 | 0.00 | 0.63 | 0.63 | 100 | 1006.8 |
| 20260902232244 | 60 | 200 | 2.0 | 5.0 | 0.00 | 0.63 | 0.63 | 100 | 1006.8 |
| 20260902232002 | 60 | 200 | 2.0 | 8.0 | 0.00 | 0.63 | 0.63 | 100 | 1006.7 |
| 20260902231727 | 60 | 155 | 4.0 | 8.0 | 0.00 | 0.63 | 0.63 | 100 | 1006.7 |
| 20260902231455 | 59 | 0 | 0.0 | 8.0 | 0.00 | 0.63 | 0.63 | 100 | 1006.6 |
| 20260902231210 | 59 | 228 | 2.0 | 8.0 | 0.00 | 0.63 | 0.63 | 100 | 1006.6 |
| 20260902230948 | 59 | 0 | 0.0 | 8.0 | 0.00 | 0.63 | 0.63 | 100 | 1006.7 |
| 20260902230653 | 59 | 210 | 3.0 | 8.0 | 0.01 | 0.63 | 0.63 | 100 | 1006.5 |
| 20260902230441 | 59 | 217 | 2.0 | 8.0 | 0.01 | 0.63 | 0.63 | 100 | 1006.6 |
| 20260902230136 | 59 | 177 | 7.0 | 8.0 | 0.01 | 0.63 | 0.63 | 100 | 1006.5 |
| 20260902225934 | 59 | 152 | 5.0 | 8.0 | 0.01 | 0.63 | 0.63 | 100 | 1006.5 |
| 20260902225619 | 59 | 0 | 0.0 | 8.0 | 0.01 | 0.63 | 0.63 | 100 | 1006.5 |
| 20260902225427 | 59 | 0 | 0.0 | 8.0 | 0.01 | 0.63 | 0.63 | 100 | 1006.5 |
| 20260902224921 | 58 | 177 | 7.0 | 8.0 | 0.01 | 0.63 | 0.63 | 100 | 1006.3 |
| 20260902224545 | 58 | 0 | 0.0 | 6.0 | 0.02 | 0.63 | 0.63 | 100 | 1006.4 |
| 20260902224413 | 58 | 0 | 0.0 | 6.0 | 0.02 | 0.63 | 0.63 | 100 | 1006.3 |
| 20260902224028 | 58 | 0 | 0.0 | 9.0 | 0.02 | 0.63 | 0.63 | 100 | 1006.3 |
| 20260902223906 | 58 | 0 | 0.0 | 9.0 | 0.02 | 0.63 | 0.63 | 100 | 1006.3 |
| 20260902223512 | 58 | 197 | 1.0 | 9.0 | 0.02 | 0.63 | 0.63 | 100 | 1006.2 |
| 20260902223400 | 58 | 197 | 3.0 | 9.0 | 0.02 | 0.63 | 0.63 | 100 | 1006.2 |
| 20260902222954 | 57 | 0 | 0.0 | 9.0 | 0.02 | 0.63 | 0.63 | 100 | 1006.2 |
| 20260902222852 | 57 | 0 | 0.0 | 9.0 | 0.02 | 0.63 | 0.63 | 100 | 1006.2 |
| 20260902222437 | 57 | 194 | 3.0 | 9.0 | 0.02 | 0.63 | 0.63 | 100 | 1006.3 |
| 20260902222345 | 57 | 204 | 6.0 | 9.0 | 0.02 | 0.63 | 0.63 | 100 | 1006.3 |
| 20260902221920 | 57 | 186 | 4.0 | 8.0 | 0.02 | 0.63 | 0.63 | 100 | 1006.2 |
| 20260902221838 | 57 | 186 | 6.0 | 8.0 | 0.02 | 0.63 | 0.63 | 100 | 1006.2 |
| 20260902221403 | 57 | 170 | 2.0 | 10.0 | 0.02 | 0.63 | 0.63 | 100 | 1006.1 |
| 20260902221332 | 57 | 170 | 2.0 | 10.0 | 0.02 | 0.63 | 0.63 | 100 | 1006.1 |
| 20260902220848 | 57 | 173 | 4.0 | 10.0 | 0.02 | 0.63 | 0.63 | 100 | 1006.1 |
| 20260902220824 | 57 | 173 | 2.0 | 10.0 | 0.02 | 0.63 | 0.63 | 100 | 1006.0 |
| 20260902220330 | 57 | 0 | 0.0 | 10.0 | 0.01 | 0.63 | 0.63 | 100 | 1006.0 |
| 20260902220318 | 57 | 0 | 0.0 | 10.0 | 0.01 | 0.63 | 0.63 | 100 | 1006.0 |
| 20260902215810 | 57 | 161 | 7.0 | 7.0 | 0.02 | 0.62 | 0.62 | 100 | 1006.0 |
| 20260902215306 | 57 | 0 | 3.0 | 13.0 | 0.02 | 0.62 | 0.62 | 100 | 1005.9 |
| 20260902215255 | 57 | 194 | 8.0 | 13.0 | 0.02 | 0.62 | 0.62 | 100 | 1005.9 |
| 20260902214756 | 57 | 180 | 5.0 | 13.0 | 0.02 | 0.62 | 0.62 | 100 | 1005.9 |
| 20260902214738 | 57 | 180 | 5.0 | 13.0 | 0.02 | 0.62 | 0.62 | 100 | 1005.9 |
| 20260902214249 | 57 | 204 | 11.0 | 13.0 | 0.02 | 0.61 | 0.61 | 100 | 1006.0 |
| 20260902214221 | 57 | 204 | 9.0 | 13.0 | 0.02 | 0.61 | 0.61 | 100 | 1006.0 |
| 20260902213743 | 57 | 173 | 5.0 | 11.0 | 0.02 | 0.61 | 0.61 | 100 | 1005.9 |
| 20260902213704 | 57 | 173 | 5.0 | 11.0 | 0.02 | 0.61 | 0.61 | 100 | 1005.9 |
| 20260902213235 | 57 | 212 | 4.0 | 11.0 | 0.02 | 0.61 | 0.61 | 100 | 1005.9 |
| 20260902213147 | 57 | 212 | 5.0 | 11.0 | 0.02 | 0.61 | 0.61 | 100 | 1005.9 |
| 20260902212630 | 57 | 205 | 8.0 | 11.0 | 0.02 | 0.61 | 0.61 | 100 | 1005.9 |
| 20260902212221 | 57 | 200 | 6.0 | 9.0 | 0.02 | 0.61 | 0.61 | 100 | 1005.9 |
| 20260902212113 | 57 | 187 | 3.0 | 6.0 | 0.02 | 0.61 | 0.61 | 100 | 1005.9 |
| 20260902211714 | 57 | 222 | 7.0 | 15.0 | 0.03 | 0.61 | 0.61 | 100 | 1005.9 |
| 20260902211556 | 57 | 222 | 6.0 | 15.0 | 0.03 | 0.61 | 0.61 | 100 | 1005.9 |
| 20260902211207 | 56 | 189 | 8.0 | 15.0 | 0.03 | 0.61 | 0.61 | 100 | 1005.8 |
| 20260902211039 | 56 | 166 | 5.0 | 15.0 | 0.03 | 0.61 | 0.61 | 100 | 1005.9 |
| 20260902210700 | 57 | 210 | 6.0 | 15.0 | 0.06 | 0.61 | 0.61 | 100 | 1005.9 |
| 20260902210522 | 57 | 232 | 4.0 | 15.0 | 0.06 | 0.61 | 0.61 | 100 | 1005.9 |
| 20260902210153 | 57 | 191 | 10.0 | 15.0 | 0.06 | 0.61 | 0.61 | 100 | 1005.8 |
| 20260902210006 | 56 | 191 | 11.0 | 15.0 | 0.06 | 0.61 | 0.61 | 100 | 1005.7 |
| 20260902205646 | 57 | 205 | 6.0 | 9.0 | 0.06 | 0.61 | 0.61 | 100 | 1005.7 |
| 20260902205448 | 57 | 228 | 2.0 | 4.0 | 0.06 | 0.60 | 0.60 | 100 | 1005.7 |
| 20260902205139 | 57 | 211 | 4.0 | 15.0 | 0.06 | 0.60 | 0.60 | 100 | 1005.6 |
| 20260902204931 | 57 | 196 | 4.0 | 15.0 | 0.06 | 0.60 | 0.60 | 100 | 1005.6 |
| 20260902204632 | 57 | 277 | 6.0 | 15.0 | 0.06 | 0.60 | 0.60 | 100 | 1005.6 |
| 20260902204414 | 57 | 197 | 4.0 | 15.0 | 0.06 | 0.60 | 0.60 | 100 | 1005.6 |
| 20260902204125 | 57 | 210 | 5.0 | 15.0 | 0.06 | 0.59 | 0.59 | 100 | 1005.5 |
| 20260902203858 | 56 | 210 | 4.0 | 15.0 | 0.06 | 0.59 | 0.59 | 100 | 1005.4 |
| 20260902203618 | 56 | 215 | 10.0 | 15.0 | 0.08 | 0.59 | 0.59 | 100 | 1005.5 |
| 20260902203340 | 56 | 175 | 11.0 | 15.0 | 0.08 | 0.59 | 0.59 | 100 | 1005.5 |
| 20260902203111 | 56 | 296 | 3.0 | 24.0 | 0.08 | 0.59 | 0.59 | 100 | 1005.6 |
| 20260902202823 | 56 | 180 | 1.0 | 24.0 | 0.08 | 0.59 | 0.59 | 100 | 1005.5 |
| 20260902202604 | 56 | 205 | 9.0 | 24.0 | 0.09 | 0.59 | 0.59 | 100 | 1005.5 |
| 20260902202306 | 56 | 287 | 7.0 | 24.0 | 0.09 | 0.59 | 0.59 | 100 | 1005.4 |
| 20260902202057 | 56 | 287 | 10.0 | 24.0 | 0.09 | 0.59 | 0.59 | 100 | 1005.4 |
| 20260902201749 | 56 | 260 | 16.0 | 24.0 | 0.09 | 0.59 | 0.59 | 100 | 1005.1 |
| 20260902201232 | 56 | 239 | 12.0 | 19.0 | 0.09 | 0.58 | 0.58 | 100 | 1005.1 |
| 20260902201043 | 56 | 247 | 9.0 | 24.0 | 0.09 | 0.58 | 0.58 | 100 | 1005.3 |
| 20260902200715 | 56 | 242 | 7.0 | 24.0 | 0.07 | 0.58 | 0.58 | 100 | 1005.3 |
| 20260902200536 | 56 | 240 | 7.0 | 24.0 | 0.07 | 0.57 | 0.57 | 100 | 1005.4 |
| 20260902200158 | 56 | 177 | 7.0 | 24.0 | 0.07 | 0.56 | 0.57 | 100 | 1005.3 |
| 20260902200029 | 56 | 177 | 9.0 | 24.0 | 0.07 | 0.56 | 0.56 | 100 | 1005.3 |
| 20260902195641 | 56 | 226 | 6.0 | 24.0 | 0.07 | 0.55 | 0.55 | 100 | 1005.3 |
| 20260902195523 | 56 | 219 | 8.0 | 24.0 | 0.07 | 0.54 | 0.54 | 100 | 1005.2 |
| 20260902195124 | 56 | 215 | 9.0 | 23.0 | 0.07 | 0.54 | 0.54 | 100 | 1005.1 |
| 20260902195015 | 56 | 252 | 8.0 | 23.0 | 0.07 | 0.54 | 0.54 | 100 | 1005.1 |
| 20260902194608 | 56 | 242 | 9.0 | 23.0 | 0.07 | 0.54 | 0.54 | 100 | 1005.0 |
| 20260902194508 | 56 | 242 | 11.0 | 23.0 | 0.07 | 0.54 | 0.54 | 100 | 1004.9 |
| 20260902194050 | 56 | 184 | 12.0 | 23.0 | 0.07 | 0.53 | 0.53 | 100 | 1004.9 |
| 20260902194001 | 56 | 212 | 6.0 | 23.0 | 0.07 | 0.53 | 0.53 | 100 | 1004.9 |
| 20260902193533 | 56 | 212 | 16.0 | 23.0 | 0.07 | 0.53 | 0.53 | 100 | 1004.8 |
| 20260902193454 | 56 | 211 | 15.0 | 21.0 | 0.07 | 0.53 | 0.53 | 100 | 1004.8 |
| 20260902193016 | 56 | 203 | 14.0 | 19.0 | 0.07 | 0.52 | 0.52 | 100 | 1004.8 |
| 20260902192947 | 56 | 203 | 9.0 | 19.0 | 0.07 | 0.52 | 0.52 | 100 | 1004.8 |
| 20260902192459 | 56 | 226 | 11.0 | 27.0 | 0.09 | 0.51 | 0.51 | 100 | 1004.7 |
| 20260902192440 | 56 | 226 | 13.0 | 27.0 | 0.09 | 0.51 | 0.51 | 100 | 1004.7 |
| 20260902191942 | 56 | 187 | 10.0 | 27.0 | 0.09 | 0.50 | 0.50 | 100 | 1004.7 |
| 20260902191934 | 56 | 187 | 9.0 | 27.0 | 0.09 | 0.50 | 0.50 | 100 | 1004.8 |
| 20260902191425 | 56 | 232 | 10.0 | 27.0 | 0.11 | 0.50 | 0.50 | 100 | 1004.7 |
| 20260902190920 | 57 | 168 | 9.0 | 17.0 | 0.11 | 0.49 | 0.49 | 100 | 1004.6 |
| 20260902190908 | 57 | 168 | 7.0 | 17.0 | 0.11 | 0.49 | 0.49 | 100 | 1004.6 |
| 20260902190412 | 57 | 162 | 6.0 | 17.0 | 0.13 | 0.49 | 0.49 | 100 | 1004.5 |
| 20260902185905 | 57 | 194 | 6.0 | 17.0 | 0.13 | 0.48 | 0.48 | 100 | 1004.5 |
| 20260902185358 | 57 | 196 | 7.0 | 17.0 | 0.15 | 0.48 | 0.48 | 100 | 1004.5 |
| 20260902185320 | 57 | 0 | 0.0 | 17.0 | 0.15 | 0.48 | 0.48 | 100 | 1004.5 |
| 20260902184851 | 57 | 191 | 4.0 | 17.0 | 0.15 | 0.47 | 0.47 | 100 | 1004.3 |
| 20260902184800 | 57 | 187 | 10.0 | 17.0 | 0.16 | 0.47 | 0.47 | 100 | 1004.4 |
| 20260902184344 | 57 | 299 | 4.0 | 10.0 | 0.16 | 0.46 | 0.46 | 100 | 1004.3 |
| 20260902184243 | 57 | 200 | 3.0 | 10.0 | 0.16 | 0.46 | 0.46 | 100 | 1004.3 |
| 20260902183838 | 57 | 219 | 5.0 | 10.0 | 0.16 | 0.46 | 0.46 | 100 | 1004.2 |
| 20260902183726 | 57 | 173 | 5.0 | 10.0 | 0.15 | 0.46 | 0.46 | 100 | 1004.1 |
| 20260902183330 | 57 | 155 | 5.0 | 5.0 | 0.15 | 0.46 | 0.46 | 100 | 1004.1 |
| 20260902183210 | 57 | 193 | 2.0 | 5.0 | 0.15 | 0.45 | 0.45 | 100 | 1004.1 |
| 20260902182823 | 57 | 193 | 4.0 | 5.0 | 0.15 | 0.44 | 0.44 | 100 | 1004.1 |
| 20260902182652 | 57 | 190 | 2.0 | 5.0 | 0.13 | 0.44 | 0.44 | 100 | 1004.1 |
| 20260902182316 | 57 | 0 | 0.0 | 5.0 | 0.13 | 0.43 | 0.43 | 100 | 1004.2 |
| 20260902182135 | 57 | 156 | 4.0 | 5.0 | 0.13 | 0.42 | 0.42 | 100 | 1004.1 |
| 20260902181809 | 57 | 0 | 0.0 | 5.0 | 0.13 | 0.41 | 0.41 | 100 | 1004.1 |
| 20260902181618 | 57 | 183 | 4.0 | 5.0 | 0.10 | 0.41 | 0.41 | 100 | 1004.1 |
| 20260902181302 | 57 | 232 | 1.0 | 3.0 | 0.10 | 0.40 | 0.40 | 100 | 1004.0 |
| 20260902181101 | 57 | 0 | 0.0 | 0.0 | 0.10 | 0.39 | 0.39 | 100 | 1004.1 |
| 20260902180755 | 57 | 0 | 0.0 | 0.0 | 0.08 | 0.37 | 0.38 | 100 | 1004.1 |
| 20260902180544 | 57 | 0 | 0.0 | 0.0 | 0.08 | 0.36 | 0.37 | 100 | 1004.1 |
| 20260902180248 | 57 | 0 | 0.0 | 5.0 | 0.08 | 0.36 | 0.36 | 100 | 1004.0 |
| 20260902180027 | 57 | 0 | 0.0 | 5.0 | 0.08 | 0.35 | 0.35 | 100 | 1004.0 |
| 20260902175741 | 57 | 201 | 1.0 | 5.0 | 0.07 | 0.35 | 0.35 | 100 | 1003.9 |
| 20260902175510 | 57 | 201 | 1.0 | 5.0 | 0.07 | 0.35 | 0.35 | 100 | 1003.9 |
| 20260902175234 | 57 | 173 | 5.0 | 5.0 | 0.07 | 0.34 | 0.34 | 100 | 1004.0 |
| 20260902174953 | 57 | 173 | 4.0 | 5.0 | 0.07 | 0.32 | 0.32 | 100 | 1004.1 |
| 20260902174727 | 57 | 203 | 4.0 | 5.0 | 0.07 | 0.31 | 0.31 | 100 | 1004.0 |
| 20260902174436 | 57 | 203 | 2.0 | 8.0 | 0.07 | 0.31 | 0.31 | 100 | 1003.9 |
| 20260902174220 | 57 | 177 | 7.0 | 8.0 | 0.07 | 0.31 | 0.31 | 100 | 1003.9 |
| 20260902173919 | 57 | 0 | 0.0 | 8.0 | 0.07 | 0.30 | 0.30 | 100 | 1003.9 |
| 20260902173713 | 57 | 165 | 3.0 | 8.0 | 0.09 | 0.30 | 0.30 | 100 | 1003.8 |
| 20260902173402 | 57 | 0 | 0.0 | 8.0 | 0.09 | 0.29 | 0.29 | 100 | 1003.8 |
| 20260902173206 | 57 | 211 | 3.0 | 8.0 | 0.09 | 0.29 | 0.29 | 100 | 1003.9 |
| 20260902172845 | 57 | 148 | 2.0 | 8.0 | 0.09 | 0.29 | 0.29 | 100 | 1003.8 |
| 20260902172659 | 57 | 175 | 7.0 | 8.0 | 0.12 | 0.29 | 0.29 | 100 | 1003.8 |
| 20260902172329 | 57 | 0 | 0.0 | 6.0 | 0.12 | 0.29 | 0.29 | 100 | 1003.7 |
| 20260902171811 | 57 | 0 | 0.0 | 6.0 | 0.12 | 0.28 | 0.28 | 100 | 1003.7 |
| 20260902171645 | 57 | 166 | 4.0 | 5.0 | 0.14 | 0.28 | 0.28 | 100 | 1003.7 |
| 20260902171254 | 56 | 203 | 2.0 | 5.0 | 0.14 | 0.28 | 0.28 | 100 | 1003.6 |
| 20260902171138 | 56 | 203 | 2.0 | 5.0 | 0.14 | 0.28 | 0.28 | 100 | 1003.7 |
| 20260902170737 | 56 | 168 | 3.0 | 14.0 | 0.15 | 0.28 | 0.28 | 100 | 1003.7 |
| 20260902170631 | 56 | 168 | 7.0 | 14.0 | 0.15 | 0.28 | 0.28 | 100 | 1003.7 |
| 20260902170220 | 56 | 144 | 8.0 | 14.0 | 0.15 | 0.27 | 0.27 | 100 | 1003.6 |
| 20260902170124 | 56 | 144 | 8.0 | 14.0 | 0.15 | 0.27 | 0.27 | 100 | 1003.6 |
| 20260902165703 | 56 | 100 | 8.0 | 14.0 | 0.14 | 0.26 | 0.26 | 99 | 1003.6 |
| 20260902165617 | 56 | 100 | 6.0 | 14.0 | 0.14 | 0.26 | 0.26 | 99 | 1003.7 |
| 20260902165146 | 56 | 112 | 8.0 | 12.0 | 0.14 | 0.26 | 0.26 | 99 | 1003.6 |
| 20260902165110 | 56 | 112 | 8.0 | 12.0 | 0.14 | 0.26 | 0.26 | 99 | 1003.6 |
| 20260902164629 | 56 | 138 | 6.0 | 12.0 | 0.13 | 0.25 | 0.25 | 99 | 1003.6 |
| 20260902164112 | 56 | 113 | 8.0 | 12.0 | 0.13 | 0.24 | 0.24 | 99 | 1003.7 |
| 20260902164056 | 56 | 113 | 9.0 | 12.0 | 0.13 | 0.24 | 0.24 | 99 | 1003.7 |
| 20260902163549 | 56 | 179 | 6.0 | 11.0 | 0.11 | 0.23 | 0.23 | 99 | 1003.9 |
| 20260902163038 | 57 | 158 | 7.0 | 11.0 | 0.11 | 0.21 | 0.21 | 99 | 1004.2 |
| 20260902162537 | 57 | 105 | 7.0 | 11.0 | 0.07 | 0.19 | 0.19 | 98 | 1004.3 |
| 20260902162521 | 57 | 105 | 7.0 | 11.0 | 0.07 | 0.19 | 0.19 | 98 | 1004.3 |
| 20260902162028 | 57 | 110 | 9.0 | 10.0 | 0.07 | 0.17 | 0.17 | 98 | 1004.4 |
| 20260902162006 | 57 | 168 | 6.0 | 10.0 | 0.07 | 0.17 | 0.17 | 98 | 1004.4 |
| 20260902161521 | 57 | 145 | 7.0 | 10.0 | 0.06 | 0.16 | 0.16 | 98 | 1004.4 |
| 20260902161447 | 57 | 138 | 5.0 | 10.0 | 0.06 | 0.15 | 0.16 | 98 | 1004.4 |
| 20260902161014 | 57 | 134 | 4.0 | 10.0 | 0.06 | 0.14 | 0.14 | 98 | 1004.5 |
| 20260902160930 | 57 | 134 | 7.0 | 10.0 | 0.06 | 0.14 | 0.14 | 98 | 1004.5 |
| 20260902160507 | 57 | 148 | 4.0 | 9.0 | 0.04 | 0.13 | 0.13 | 98 | 1004.6 |
| 20260902160414 | 57 | 148 | 8.0 | 9.0 | 0.04 | 0.13 | 0.13 | 98 | 1004.5 |
| 20260902160000 | 57 | 179 | 6.0 | 8.0 | 0.04 | 0.12 | 0.12 | 98 | 1004.6 |
| 20260902155856 | 57 | 141 | 2.0 | 7.0 | 0.04 | 0.12 | 0.12 | 98 | 1004.7 |
| 20260902155453 | 57 | 0 | 0.0 | 7.0 | 0.05 | 0.11 | 0.12 | 97 | 1004.7 |
| 20260902155339 | 57 | 0 | 0.0 | 7.0 | 0.05 | 0.11 | 0.11 | 97 | 1004.8 |
| 20260902154946 | 57 | 0 | 0.0 | 7.0 | 0.05 | 0.11 | 0.11 | 97 | 1004.7 |
| 20260902154822 | 57 | 0 | 0.0 | 7.0 | 0.05 | 0.11 | 0.11 | 97 | 1004.7 |
| 20260902154439 | 57 | 100 | 2.0 | 7.0 | 0.06 | 0.10 | 0.10 | 97 | 1004.8 |
| 20260902154305 | 57 | 72 | 5.0 | 7.0 | 0.06 | 0.10 | 0.10 | 97 | 1004.8 |
| 20260902153748 | 57 | 179 | 5.0 | 7.0 | 0.06 | 0.10 | 0.10 | 97 | 1004.8 |
| 20260902153425 | 57 | 0 | 0.0 | 0.0 | 0.06 | 0.10 | 0.10 | 96 | 1004.9 |
| 20260902153231 | 57 | 0 | 0.0 | 0.0 | 0.06 | 0.10 | 0.10 | 96 | 1005.0 |
| 20260902152918 | 57 | 0 | 0.0 | 5.0 | 0.06 | 0.09 | 0.09 | 96 | 1004.9 |
| 20260902152714 | 57 | 0 | 0.0 | 5.0 | 0.08 | 0.09 | 0.09 | 96 | 1004.9 |
| 20260902152411 | 57 | 0 | 0.0 | 5.0 | 0.08 | 0.09 | 0.09 | 96 | 1005.0 |
| 20260902151904 | 57 | 0 | 0.0 | 5.0 | 0.08 | 0.09 | 0.09 | 95 | 1005.1 |
| 20260902151640 | 57 | 226 | 1.0 | 5.0 | 0.07 | 0.09 | 0.09 | 95 | 1005.1 |
| 20260902151357 | 57 | 0 | 0.0 | 5.0 | 0.07 | 0.09 | 0.09 | 95 | 1005.1 |
| 20260902150850 | 57 | 0 | 0.0 | 7.0 | 0.07 | 0.08 | 0.08 | 95 | 1005.1 |
| 20260902150606 | 57 | 166 | 1.0 | 7.0 | 0.07 | 0.08 | 0.08 | 94 | 1005.1 |
| 20260902150343 | 57 | 0 | 0.0 | 7.0 | 0.07 | 0.08 | 0.08 | 94 | 1005.0 |
| 20260902150049 | 57 | 0 | 0.0 | 7.0 | 0.07 | 0.08 | 0.08 | 94 | 1005.0 |
| 20260902145837 | 57 | 0 | 0.0 | 7.0 | 0.07 | 0.08 | 0.08 | 94 | 1005.0 |
| 20260902145532 | 57 | 184 | 6.0 | 7.0 | 0.05 | 0.07 | 0.07 | 93 | 1005.1 |
| 20260902145329 | 57 | 176 | 3.0 | 7.0 | 0.05 | 0.07 | 0.07 | 93 | 1005.1 |
| 20260902145015 | 57 | 172 | 6.0 | 9.0 | 0.05 | 0.07 | 0.07 | 93 | 1005.1 |
| 20260902144822 | 57 | 172 | 6.0 | 9.0 | 0.05 | 0.06 | 0.06 | 92 | 1005.1 |
| 20260902144458 | 58 | 0 | 0.0 | 9.0 | 0.03 | 0.06 | 0.06 | 92 | 1005.1 |
| 20260902144315 | 58 | 0 | 0.0 | 9.0 | 0.03 | 0.05 | 0.05 | 92 | 1005.1 |
| 20260902143941 | 58 | 215 | 3.0 | 9.0 | 0.03 | 0.05 | 0.05 | 91 | 1005.1 |
| 20260902143808 | 58 | 218 | 7.0 | 9.0 | 0.02 | 0.04 | 0.04 | 91 | 1005.0 |
| 20260902143424 | 58 | 218 | 6.0 | 9.0 | 0.02 | 0.04 | 0.04 | 91 | 1005.1 |
| 20260902143301 | 58 | 166 | 5.0 | 8.0 | 0.02 | 0.03 | 0.04 | 90 | 1005.0 |
| 20260902142907 | 58 | 166 | 5.0 | 8.0 | 0.02 | 0.03 | 0.03 | 90 | 1005.0 |
| 20260902142755 | 58 | 182 | 6.0 | 8.0 | 0.00 | 0.03 | 0.03 | 90 | 1005.0 |
| 20260902142350 | 58 | 218 | 5.0 | 8.0 | 0.00 | 0.02 | 0.02 | 89 | 1005.0 |
| 20260902142247 | 58 | 207 | 4.0 | 8.0 | 0.00 | 0.02 | 0.02 | 89 | 1005.0 |
| 20260902141740 | 58 | 159 | 5.0 | 7.0 | 0.00 | 0.01 | 0.01 | 88 | 1005.0 |
| 20260902141316 | 58 | 196 | 7.0 | 7.0 | 0.00 | 0.01 | 0.01 | 88 | 1004.9 |
| 20260902141233 | 58 | 159 | 4.0 | 13.0 | 0.00 | 0.01 | 0.01 | 88 | 1004.9 |
| 20260902140759 | 58 | 169 | 6.0 | 13.0 | 0.00 | 0.01 | 0.01 | 88 | 1005.2 |
| 20260902140726 | 58 | 169 | 8.0 | 13.0 | 0.00 | 0.01 | 0.01 | 88 | 1005.1 |
| 20260902140242 | 58 | 170 | 9.0 | 13.0 | 0.00 | 0.01 | 0.01 | 88 | 1005.2 |
| 20260902140219 | 58 | 170 | 8.0 | 13.0 | 0.00 | 0.01 | 0.01 | 88 | 1005.2 |
| 20260902135725 | 58 | 170 | 9.0 | 13.0 | 0.00 | 0.01 | 0.01 | 89 | 1005.2 |
| 20260902135712 | 58 | 170 | 9.0 | 13.0 | 0.00 | 0.01 | 0.01 | 89 | 1005.2 |
| 20260902135205 | 58 | 176 | 7.0 | 15.0 | 0.00 | 0.01 | 0.01 | 89 | 1005.3 |
| 20260902134658 | 58 | 191 | 4.0 | 15.0 | 0.00 | 0.01 | 0.01 | 89 | 1005.3 |
| 20260902134651 | 58 | 191 | 5.0 | 15.0 | 0.00 | 0.01 | 0.01 | 89 | 1005.3 |
| 20260902134151 | 58 | 210 | 7.0 | 15.0 | 0.00 | 0.01 | 0.01 | 89 | 1005.3 |
| 20260902134134 | 58 | 210 | 7.0 | 15.0 | 0.00 | 0.01 | 0.01 | 89 | 1005.4 |
| 20260902133644 | 58 | 179 | 11.0 | 15.0 | 0.00 | 0.01 | 0.01 | 89 | 1005.4 |
| 20260902133617 | 58 | 179 | 11.0 | 15.0 | 0.00 | 0.01 | 0.01 | 89 | 1005.4 |
| 20260902133137 | 58 | 200 | 8.0 | 18.0 | 0.00 | 0.01 | 0.01 | 89 | 1005.4 |
| 20260902133100 | 58 | 200 | 8.0 | 18.0 | 0.00 | 0.01 | 0.01 | 89 | 1005.5 |
| 20260902132631 | 58 | 218 | 7.0 | 18.0 | 0.00 | 0.01 | 0.01 | 89 | 1005.6 |
| 20260902132543 | 58 | 218 | 6.0 | 18.0 | 0.00 | 0.01 | 0.01 | 89 | 1005.6 |
| 20260902132123 | 58 | 214 | 7.0 | 18.0 | 0.00 | 0.01 | 0.01 | 90 | 1005.6 |
| 20260902132026 | 58 | 142 | 6.0 | 18.0 | 0.00 | 0.01 | 0.01 | 90 | 1005.6 |
| 20260902131616 | 58 | 159 | 11.0 | 14.0 | 0.00 | 0.01 | 0.01 | 90 | 1005.7 |
| 20260902131509 | 58 | 212 | 8.0 | 11.0 | 0.00 | 0.01 | 0.01 | 90 | 1005.7 |
| 20260902131109 | 58 | 152 | 5.0 | 11.0 | 0.00 | 0.01 | 0.01 | 90 | 1005.7 |
| 20260902130952 | 58 | 158 | 9.0 | 10.0 | 0.00 | 0.01 | 0.01 | 90 | 1005.7 |
| 20260902130602 | 58 | 159 | 12.0 | 17.0 | 0.00 | 0.01 | 0.01 | 90 | 1005.8 |
| 20260902130435 | 58 | 170 | 10.0 | 17.0 | 0.00 | 0.01 | 0.01 | 90 | 1005.8 |
| 20260902130055 | 58 | 217 | 7.0 | 17.0 | 0.00 | 0.01 | 0.01 | 91 | 1005.9 |
| 20260902125918 | 58 | 217 | 6.0 | 17.0 | 0.00 | 0.01 | 0.01 | 91 | 1005.8 |
| 20260902125548 | 58 | 189 | 10.0 | 17.0 | 0.00 | 0.01 | 0.01 | 91 | 1005.9 |
| 20260902125401 | 58 | 233 | 9.0 | 17.0 | 0.00 | 0.01 | 0.01 | 91 | 1005.9 |
| 20260902125041 | 58 | 172 | 12.0 | 17.0 | 0.00 | 0.01 | 0.01 | 91 | 1005.9 |
| 20260902124844 | 58 | 159 | 8.0 | 15.0 | 0.00 | 0.01 | 0.01 | 91 | 1005.9 |
| 20260902124534 | 58 | 170 | 10.0 | 15.0 | 0.00 | 0.01 | 0.01 | 91 | 1006.0 |
| 20260902124027 | 58 | 179 | 8.0 | 14.0 | 0.00 | 0.01 | 0.01 | 90 | 1006.1 |
| 20260902123810 | 58 | 187 | 7.0 | 14.0 | 0.00 | 0.01 | 0.01 | 90 | 1006.1 |
| 20260902123253 | 58 | 233 | 6.0 | 12.0 | 0.00 | 0.01 | 0.01 | 90 | 1006.2 |
| 20260902123013 | 58 | 225 | 5.0 | 12.0 | 0.00 | 0.01 | 0.01 | 89 | 1006.2 |
| 20260902122736 | 58 | 229 | 9.0 | 12.0 | 0.00 | 0.01 | 0.01 | 89 | 1006.4 |
| 20260902122506 | 58 | 229 | 11.0 | 12.0 | 0.00 | 0.01 | 0.01 | 89 | 1006.5 |
| 20260902122219 | 58 | 193 | 9.0 | 18.0 | 0.00 | 0.01 | 0.01 | 89 | 1006.4 |
| 20260902121959 | 58 | 240 | 5.0 | 18.0 | 0.00 | 0.01 | 0.01 | 88 | 1006.4 |
| 20260902121701 | 59 | 201 | 7.0 | 18.0 | 0.00 | 0.01 | 0.01 | 88 | 1006.4 |
| 20260902121452 | 59 | 201 | 5.0 | 18.0 | 0.00 | 0.01 | 0.01 | 88 | 1006.5 |
| 20260902121145 | 59 | 201 | 8.0 | 18.0 | 0.00 | 0.01 | 0.01 | 87 | 1006.5 |
| 20260902120945 | 59 | 177 | 7.0 | 18.0 | 0.00 | 0.01 | 0.01 | 87 | 1006.5 |
| 20260902120627 | 59 | 147 | 12.0 | 18.0 | 0.00 | 0.01 | 0.01 | 87 | 1006.6 |
| 20260902120438 | 59 | 193 | 9.0 | 16.0 | 0.00 | 0.01 | 0.01 | 87 | 1006.6 |
| 20260902120111 | 59 | 194 | 11.0 | 16.0 | 0.00 | 0.01 | 0.01 | 87 | 1006.6 |
| 20260902115931 | 59 | 208 | 10.0 | 14.0 | 0.00 | 0.01 | 0.01 | 88 | 1006.6 |
| 20260902115553 | 59 | 194 | 7.0 | 13.0 | 0.00 | 0.01 | 0.01 | 88 | 1006.6 |
| 20260902115424 | 59 | 172 | 7.0 | 13.0 | 0.00 | 0.01 | 0.01 | 88 | 1006.6 |
| 20260902115037 | 59 | 147 | 5.0 | 9.0 | 0.00 | 0.01 | 0.01 | 88 | 1006.5 |
| 20260902114917 | 59 | 162 | 6.0 | 9.0 | 0.00 | 0.01 | 0.01 | 88 | 1006.6 |
| 20260902114519 | 59 | 190 | 7.0 | 19.0 | 0.00 | 0.01 | 0.01 | 88 | 1006.6 |
| 20260902114410 | 59 | 190 | 8.0 | 19.0 | 0.00 | 0.01 | 0.01 | 88 | 1006.7 |
| 20260902114003 | 59 | 200 | 6.0 | 19.0 | 0.00 | 0.01 | 0.01 | 88 | 1006.6 |
| 20260902113446 | 59 | 152 | 8.0 | 19.0 | 0.00 | 0.01 | 0.01 | 89 | 1006.6 |
| 20260902113356 | 59 | 187 | 9.0 | 19.0 | 0.00 | 0.01 | 0.01 | 89 | 1006.8 |
| 20260902112928 | 59 | 211 | 10.0 | 19.0 | 0.00 | 0.01 | 0.01 | 89 | 1006.7 |
| 20260902112849 | 59 | 211 | 11.0 | 19.0 | 0.00 | 0.01 | 0.01 | 89 | 1006.8 |
| 20260902112411 | 59 | 217 | 8.0 | 13.0 | 0.00 | 0.01 | 0.01 | 89 | 1006.9 |
| 20260902112342 | 59 | 208 | 8.0 | 13.0 | 0.00 | 0.01 | 0.01 | 90 | 1006.9 |
| 20260902111854 | 59 | 233 | 5.0 | 7.0 | 0.00 | 0.01 | 0.01 | 90 | 1006.9 |
| 20260902111837 | 59 | 233 | 7.0 | 7.0 | 0.00 | 0.01 | 0.01 | 90 | 1007.1 |
| 20260902111338 | 58 | 200 | 4.0 | 15.0 | 0.00 | 0.01 | 0.01 | 90 | 1007.2 |
| 20260902110821 | 58 | 173 | 6.0 | 15.0 | 0.00 | 0.01 | 0.01 | 91 | 1007.3 |
| 20260902110303 | 58 | 127 | 9.0 | 15.0 | 0.00 | 0.01 | 0.01 | 91 | 1007.3 |
| 20260902105746 | 58 | 236 | 7.0 | 10.0 | 0.00 | 0.01 | 0.01 | 92 | 1007.4 |
| 20260902105259 | 58 | 168 | 7.0 | 10.0 | 0.00 | 0.01 | 0.01 | 92 | 1007.4 |
| 20260902105231 | 58 | 168 | 6.0 | 10.0 | 0.00 | 0.01 | 0.01 | 92 | 1007.4 |
| 20260902104752 | 58 | 163 | 8.0 | 10.0 | 0.00 | 0.01 | 0.01 | 93 | 1007.4 |
| 20260902104712 | 58 | 168 | 7.0 | 10.0 | 0.00 | 0.01 | 0.01 | 93 | 1007.5 |
| 20260902104245 | 58 | 183 | 6.0 | 10.0 | 0.00 | 0.01 | 0.01 | 93 | 1007.5 |
| 20260902104156 | 58 | 183 | 7.0 | 10.0 | 0.00 | 0.01 | 0.01 | 93 | 1007.6 |
| 20260902103738 | 58 | 162 | 7.0 | 10.0 | 0.00 | 0.01 | 0.01 | 93 | 1007.7 |
| 20260902103638 | 58 | 162 | 7.0 | 10.0 | 0.00 | 0.01 | 0.01 | 94 | 1007.7 |
| 20260902103232 | 58 | 173 | 8.0 | 10.0 | 0.00 | 0.01 | 0.01 | 94 | 1007.8 |
| 20260902103121 | 58 | 173 | 5.0 | 10.0 | 0.00 | 0.01 | 0.01 | 94 | 1007.9 |
| 20260902102724 | 58 | 168 | 6.0 | 10.0 | 0.00 | 0.01 | 0.01 | 94 | 1007.8 |
| 20260902102605 | 58 | 168 | 9.0 | 10.0 | 0.00 | 0.01 | 0.01 | 94 | 1007.8 |
| 20260902102217 | 58 | 173 | 7.0 | 10.0 | 0.00 | 0.01 | 0.01 | 95 | 1007.8 |
| 20260902102048 | 58 | 112 | 4.0 | 10.0 | 0.00 | 0.01 | 0.01 | 95 | 1007.8 |
| 20260902101711 | 58 | 172 | 7.0 | 10.0 | 0.00 | 0.01 | 0.01 | 95 | 1007.8 |
| 20260902101530 | 58 | 161 | 5.0 | 10.0 | 0.00 | 0.01 | 0.01 | 95 | 1007.8 |
| 20260902101203 | 58 | 147 | 8.0 | 10.0 | 0.00 | 0.01 | 0.01 | 95 | 1007.8 |
| 20260902101013 | 58 | 145 | 7.0 | 8.0 | 0.00 | 0.01 | 0.01 | 95 | 1007.8 |
| 20260902100656 | 58 | 175 | 3.0 | 7.0 | 0.00 | 0.01 | 0.01 | 95 | 1007.8 |
| 20260902100456 | 58 | 175 | 5.0 | 10.0 | 0.00 | 0.01 | 0.01 | 96 | 1007.8 |
| 20260902100149 | 58 | 158 | 4.0 | 10.0 | 0.00 | 0.01 | 0.01 | 96 | 1007.8 |
| 20260902095939 | 58 | 169 | 3.0 | 10.0 | 0.00 | 0.01 | 0.01 | 96 | 1007.8 |
| 20260902095642 | 58 | 152 | 8.0 | 10.0 | 0.00 | 0.01 | 0.01 | 96 | 1007.9 |
| 20260902095422 | 58 | 152 | 7.0 | 10.0 | 0.00 | 0.01 | 0.01 | 96 | 1007.8 |
| 20260902095135 | 58 | 212 | 6.0 | 10.0 | 0.00 | 0.01 | 0.01 | 96 | 1008.0 |
| 20260902094905 | 58 | 190 | 2.0 | 10.0 | 0.00 | 0.01 | 0.01 | 96 | 1008.1 |
| 20260902094628 | 58 | 207 | 7.0 | 14.0 | 0.00 | 0.01 | 0.01 | 96 | 1008.1 |
| 20260902094349 | 57 | 145 | 7.0 | 14.0 | 0.00 | 0.01 | 0.01 | 96 | 1008.2 |
| 20260902094121 | 57 | 169 | 6.0 | 14.0 | 0.00 | 0.01 | 0.01 | 97 | 1008.3 |
| 20260902093614 | 57 | 184 | 11.0 | 14.0 | 0.00 | 0.01 | 0.01 | 97 | 1008.4 |
| 20260902093314 | 57 | 221 | 2.0 | 14.0 | 0.00 | 0.01 | 0.01 | 97 | 1008.5 |
| 20260902093109 | 57 | 134 | 10.0 | 14.0 | 0.00 | 0.01 | 0.01 | 97 | 1008.5 |
| 20260902092757 | 57 | 172 | 7.0 | 13.0 | 0.00 | 0.01 | 0.01 | 97 | 1008.5 |
| 20260902092601 | 57 | 173 | 11.0 | 13.0 | 0.00 | 0.01 | 0.01 | 97 | 1008.5 |
| 20260902092241 | 57 | 198 | 9.0 | 13.0 | 0.00 | 0.01 | 0.01 | 97 | 1008.6 |
| 20260902092053 | 57 | 224 | 8.0 | 13.0 | 0.00 | 0.01 | 0.01 | 97 | 1008.6 |
| 20260902091723 | 57 | 203 | 9.0 | 13.0 | 0.00 | 0.01 | 0.01 | 97 | 1008.6 |
| 20260902091546 | 57 | 182 | 9.0 | 12.0 | 0.00 | 0.01 | 0.01 | 97 | 1008.6 |
| 20260902091206 | 57 | 196 | 11.0 | 17.0 | 0.00 | 0.01 | 0.01 | 97 | 1008.7 |
| 20260902091039 | 57 | 204 | 9.0 | 17.0 | 0.00 | 0.01 | 0.01 | 97 | 1008.7 |
| 20260902090649 | 57 | 214 | 8.0 | 17.0 | 0.00 | 0.01 | 0.01 | 98 | 1008.7 |
| 20260902090532 | 57 | 214 | 11.0 | 17.0 | 0.00 | 0.01 | 0.01 | 98 | 1008.8 |
| 20260902090132 | 57 | 210 | 8.0 | 17.0 | 0.00 | 0.01 | 0.01 | 98 | 1008.7 |
| 20260902090025 | 57 | 210 | 9.0 | 17.0 | 0.00 | 0.01 | 0.01 | 98 | 1008.8 |
| 20260902085615 | 57 | 211 | 8.0 | 17.0 | 0.00 | 0.01 | 0.01 | 98 | 1008.8 |
| 20260902085518 | 57 | 187 | 9.0 | 14.0 | 0.00 | 0.01 | 0.01 | 98 | 1008.8 |
| 20260902085059 | 57 | 211 | 8.0 | 24.0 | 0.00 | 0.01 | 0.01 | 98 | 1008.8 |
| 20260902085011 | 57 | 211 | 9.0 | 24.0 | 0.00 | 0.01 | 0.01 | 98 | 1008.9 |
| 20260902084541 | 57 | 176 | 8.0 | 24.0 | 0.00 | 0.01 | 0.01 | 98 | 1009.1 |
| 20260902084504 | 57 | 176 | 10.0 | 24.0 | 0.00 | 0.01 | 0.01 | 98 | 1009.1 |
| 20260902084024 | 57 | 165 | 12.0 | 24.0 | 0.00 | 0.01 | 0.01 | 98 | 1009.2 |
| 20260902083957 | 57 | 165 | 8.0 | 24.0 | 0.00 | 0.01 | 0.01 | 98 | 1009.2 |
| 20260902083507 | 57 | 145 | 9.0 | 22.0 | 0.00 | 0.01 | 0.01 | 98 | 1009.1 |
| 20260902083450 | 57 | 145 | 8.0 | 22.0 | 0.00 | 0.01 | 0.01 | 98 | 1009.1 |
| 20260902082950 | 57 | 140 | 11.0 | 17.0 | 0.00 | 0.01 | 0.01 | 98 | 1009.2 |
| 20260902082436 | 57 | 205 | 9.0 | 13.0 | 0.00 | 0.01 | 0.01 | 98 | 1009.2 |
| 20260902082433 | 57 | 205 | 9.0 | 13.0 | 0.00 | 0.01 | 0.01 | 98 | 1009.2 |
| 20260902081929 | 58 | 203 | 9.0 | 18.0 | 0.00 | 0.01 | 0.01 | 98 | 1009.3 |
| 20260902081916 | 57 | 203 | 10.0 | 18.0 | 0.00 | 0.01 | 0.01 | 98 | 1009.3 |
| 20260902081422 | 57 | 189 | 11.0 | 18.0 | 0.00 | 0.01 | 0.01 | 98 | 1009.3 |
| 20260902081359 | 57 | 189 | 10.0 | 18.0 | 0.00 | 0.01 | 0.01 | 98 | 1009.3 |
| 20260902080915 | 57 | 166 | 12.0 | 18.0 | 0.00 | 0.01 | 0.01 | 98 | 1009.3 |
| 20260902080842 | 57 | 186 | 12.0 | 18.0 | 0.00 | 0.01 | 0.01 | 98 | 1009.3 |
| 20260902080408 | 58 | 226 | 9.0 | 18.0 | 0.00 | 0.01 | 0.01 | 97 | 1009.4 |
| 20260902075902 | 58 | 201 | 10.0 | 15.0 | 0.00 | 0.01 | 0.01 | 97 | 1009.3 |
| 20260902075808 | 58 | 194 | 6.0 | 15.0 | 0.00 | 0.01 | 0.01 | 97 | 1009.3 |
| 20260902075354 | 58 | 176 | 9.0 | 16.0 | 0.00 | 0.01 | 0.01 | 98 | 1009.3 |
| 20260902075251 | 58 | 203 | 10.0 | 16.0 | 0.00 | 0.01 | 0.01 | 98 | 1009.4 |
| 20260902074847 | 58 | 196 | 8.0 | 16.0 | 0.00 | 0.01 | 0.01 | 98 | 1009.3 |
| 20260902074737 | 58 | 186 | 10.0 | 16.0 | 0.00 | 0.01 | 0.01 | 97 | 1009.4 |
| 20260902074341 | 57 | 194 | 6.0 | 16.0 | 0.00 | 0.01 | 0.01 | 98 | 1009.4 |
| 20260902074217 | 57 | 203 | 9.0 | 16.0 | 0.00 | 0.01 | 0.01 | 98 | 1009.4 |
| 20260902073700 | 57 | 253 | 10.0 | 11.0 | 0.00 | 0.01 | 0.01 | 98 | 1009.4 |
| 20260902073143 | 57 | 172 | 5.0 | 10.0 | 0.00 | 0.01 | 0.01 | 98 | 1009.4 |
| 20260902072819 | 57 | 200 | 2.0 | 10.0 | 0.00 | 0.01 | 0.01 | 98 | 1009.4 |
| 20260902072626 | 57 | 221 | 6.0 | 10.0 | 0.00 | 0.01 | 0.01 | 98 | 1009.5 |
| 20260902072312 | 57 | 194 | 7.0 | 10.0 | 0.00 | 0.01 | 0.01 | 98 | 1009.5 |
| 20260902072109 | 57 | 221 | 6.0 | 9.0 | 0.00 | 0.01 | 0.01 | 98 | 1009.5 |
| 20260902071805 | 58 | 196 | 8.0 | 16.0 | 0.00 | 0.01 | 0.01 | 97 | 1009.5 |
| 20260902071552 | 58 | 222 | 9.0 | 16.0 | 0.00 | 0.01 | 0.01 | 97 | 1009.6 |
| 20260902071258 | 58 | 198 | 9.0 | 16.0 | 0.00 | 0.01 | 0.01 | 97 | 1009.6 |
| 20260902071035 | 58 | 193 | 7.0 | 16.0 | 0.00 | 0.01 | 0.01 | 97 | 1009.7 |
| 20260902070751 | 58 | 193 | 6.0 | 16.0 | 0.00 | 0.01 | 0.01 | 97 | 1009.7 |
| 20260902070518 | 58 | 193 | 11.0 | 16.0 | 0.00 | 0.01 | 0.01 | 97 | 1009.9 |
| 20260902070244 | 58 | 219 | 11.0 | 16.0 | 0.00 | 0.01 | 0.01 | 97 | 1010.1 |
| 20260902070001 | 58 | 219 | 13.0 | 16.0 | 0.00 | 0.01 | 0.01 | 97 | 1010.1 |
| 20260902065738 | 58 | 170 | 11.0 | 14.0 | 0.00 | 0.01 | 0.01 | 97 | 1010.1 |
| 20260902065444 | 58 | 221 | 9.0 | 18.0 | 0.00 | 0.01 | 0.01 | 97 | 1009.9 |
| 20260902065231 | 58 | 187 | 11.0 | 18.0 | 0.00 | 0.01 | 0.01 | 97 | 1009.9 |
| 20260902064927 | 58 | 193 | 8.0 | 18.0 | 0.00 | 0.01 | 0.01 | 97 | 1009.9 |
| 20260902064723 | 58 | 182 | 11.0 | 18.0 | 0.00 | 0.01 | 0.01 | 97 | 1009.9 |
| 20260902064410 | 58 | 226 | 7.0 | 18.0 | 0.00 | 0.01 | 0.01 | 97 | 1009.9 |
| 20260902064216 | 58 | 210 | 9.0 | 18.0 | 0.00 | 0.01 | 0.01 | 97 | 1010.1 |
| 20260902063853 | 58 | 177 | 7.0 | 18.0 | 0.00 | 0.01 | 0.01 | 97 | 1009.9 |
| 20260902063709 | 58 | 225 | 13.0 | 18.0 | 0.00 | 0.01 | 0.01 | 97 | 1010.1 |
| 20260902063336 | 58 | 177 | 5.0 | 17.0 | 0.00 | 0.01 | 0.01 | 97 | 1009.9 |
| 20260902063202 | 58 | 151 | 11.0 | 17.0 | 0.00 | 0.01 | 0.01 | 97 | 1010.1 |
| 20260902062819 | 58 | 218 | 12.0 | 17.0 | 0.00 | 0.01 | 0.01 | 97 | 1009.9 |
| 20260902062655 | 58 | 182 | 14.0 | 17.0 | 0.00 | 0.01 | 0.01 | 97 | 1009.9 |
| 20260902062305 | 58 | 0 | 0.0 | 8.0 | 0.00 | 0.01 | 0.01 | 97 | 1009.9 |
| 20260902062148 | 58 | 197 | 6.0 | 8.0 | 0.00 | 0.01 | 0.01 | 97 | 1009.9 |
| 20260902061745 | 58 | 218 | 6.0 | 15.0 | 0.00 | 0.01 | 0.01 | 97 | 1009.9 |
| 20260902061641 | 58 | 218 | 4.0 | 15.0 | 0.00 | 0.01 | 0.01 | 97 | 1009.9 |
| 20260902061134 | 58 | 175 | 6.0 | 15.0 | 0.00 | 0.01 | 0.01 | 97 | 1010.1 |
| 20260902060711 | 58 | 204 | 9.0 | 15.0 | 0.00 | 0.01 | 0.01 | 97 | 1010.1 |
| 20260902060627 | 58 | 214 | 9.0 | 15.0 | 0.00 | 0.01 | 0.01 | 97 | 1010.2 |
| 20260902060154 | 58 | 212 | 9.0 | 15.0 | 0.00 | 0.01 | 0.01 | 97 | 1010.2 |
| 20260902060121 | 58 | 212 | 13.0 | 15.0 | 0.00 | 0.01 | 0.01 | 97 | 1010.2 |
| 20260902055613 | 58 | 183 | 10.0 | 15.0 | 0.00 | 0.01 | 0.01 | 97 | 1010.2 |
| 20260902055106 | 58 | 187 | 6.0 | 10.0 | 0.00 | 0.01 | 0.01 | 97 | 1010.2 |
| 20260902054559 | 58 | 196 | 7.0 | 10.0 | 0.00 | 0.01 | 0.01 | 98 | 1010.3 |
| 20260902054046 | 58 | 221 | 9.0 | 10.0 | 0.00 | 0.01 | 0.01 | 98 | 1010.3 |
| 20260902053545 | 58 | 200 | 8.0 | 10.0 | 0.00 | 0.01 | 0.01 | 98 | 1010.5 |
| 20260902053529 | 58 | 200 | 5.0 | 10.0 | 0.00 | 0.01 | 0.01 | 98 | 1010.5 |
| 20260902053038 | 58 | 186 | 4.0 | 9.0 | 0.00 | 0.01 | 0.01 | 98 | 1010.5 |
| 20260902053012 | 58 | 186 | 3.0 | 9.0 | 0.00 | 0.01 | 0.01 | 98 | 1010.5 |
| 20260902052531 | 58 | 190 | 8.0 | 9.0 | 0.00 | 0.01 | 0.01 | 98 | 1010.5 |
| 20260902052455 | 58 | 190 | 6.0 | 9.0 | 0.00 | 0.01 | 0.01 | 98 | 1010.5 |
| 20260902052024 | 58 | 176 | 5.0 | 13.0 | 0.00 | 0.01 | 0.01 | 98 | 1010.6 |
| 20260902051938 | 58 | 176 | 5.0 | 13.0 | 0.00 | 0.01 | 0.01 | 98 | 1010.6 |
| 20260902051518 | 58 | 161 | 7.0 | 13.0 | 0.01 | 0.01 | 0.01 | 98 | 1010.6 |
| 20260902051421 | 58 | 161 | 6.0 | 13.0 | 0.01 | 0.01 | 0.01 | 98 | 1010.6 |
| 20260902051010 | 58 | 176 | 8.0 | 13.0 | 0.01 | 0.01 | 0.01 | 98 | 1010.6 |
| 20260902050905 | 58 | 194 | 5.0 | 13.0 | 0.01 | 0.01 | 0.01 | 98 | 1010.5 |
| 20260902050503 | 58 | 207 | 11.0 | 13.0 | 0.01 | 0.01 | 0.01 | 98 | 1010.5 |
| 20260902050347 | 58 | 180 | 5.0 | 11.0 | 0.01 | 0.01 | 0.01 | 98 | 1010.6 |
| 20260902045956 | 58 | 159 | 4.0 | 9.0 | 0.01 | 0.01 | 0.01 | 98 | 1010.5 |
| 20260902045831 | 58 | 215 | 4.0 | 9.0 | 0.01 | 0.01 | 0.01 | 98 | 1010.6 |
| 20260902045449 | 58 | 229 | 8.0 | 15.0 | 0.01 | 0.01 | 0.01 | 98 | 1010.6 |
| 20260902045313 | 58 | 205 | 6.0 | 15.0 | 0.01 | 0.01 | 0.01 | 98 | 1010.7 |
| 20260902044942 | 58 | 194 | 7.0 | 15.0 | 0.01 | 0.01 | 0.01 | 98 | 1010.7 |
| 20260902044756 | 58 | 228 | 6.0 | 15.0 | 0.01 | 0.01 | 0.01 | 98 | 1010.7 |
| 20260902044435 | 58 | 228 | 10.0 | 15.0 | 0.01 | 0.01 | 0.01 | 98 | 1010.7 |
| 20260902044239 | 58 | 187 | 10.0 | 15.0 | 0.01 | 0.01 | 0.01 | 97 | 1010.7 |
| 20260902043928 | 58 | 187 | 8.0 | 15.0 | 0.01 | 0.01 | 0.01 | 98 | 1010.7 |
| 20260902043722 | 58 | 210 | 8.0 | 12.0 | 0.01 | 0.01 | 0.01 | 97 | 1010.7 |
| 20260902043421 | 58 | 170 | 7.0 | 8.0 | 0.01 | 0.01 | 0.01 | 97 | 1010.7 |
| 20260902043205 | 58 | 197 | 8.0 | 13.0 | 0.01 | 0.01 | 0.01 | 97 | 1010.7 |
| 20260902042914 | 58 | 217 | 7.0 | 13.0 | 0.01 | 0.01 | 0.01 | 97 | 1010.7 |
| 20260902042648 | 58 | 212 | 9.0 | 13.0 | 0.01 | 0.01 | 0.01 | 97 | 1010.7 |
| 20260902042407 | 58 | 212 | 12.0 | 13.0 | 0.01 | 0.01 | 0.01 | 97 | 1010.6 |
| 20260902042131 | 58 | 203 | 7.0 | 13.0 | 0.01 | 0.01 | 0.01 | 97 | 1010.6 |
| 20260902041900 | 58 | 212 | 4.0 | 13.0 | 0.01 | 0.01 | 0.01 | 97 | 1010.9 |
| 20260902041614 | 58 | 190 | 10.0 | 13.0 | 0.00 | 0.00 | 0.00 | 96 | 1010.9 |
| 20260902041353 | 58 | 173 | 5.0 | 12.0 | 0.00 | 0.00 | 0.00 | 96 | 1010.9 |
| 20260902041057 | 58 | 196 | 8.0 | 12.0 | 0.00 | 0.00 | 0.00 | 96 | 1010.8 |
| 20260902040846 | 58 | 166 | 7.0 | 12.0 | 0.00 | 0.00 | 0.00 | 96 | 1010.8 |
| 20260902040540 | 59 | 191 | 10.0 | 18.0 | 0.00 | 0.00 | 0.00 | 96 | 1010.8 |
| 20260902040023 | 59 | 203 | 8.0 | 18.0 | 0.00 | 0.00 | 0.00 | 95 | 1010.7 |
| 20260902035832 | 59 | 217 | 10.0 | 18.0 | 0.00 | 0.00 | 0.00 | 95 | 1010.7 |
| 20260902035506 | 59 | 200 | 7.0 | 18.0 | 0.00 | 0.00 | 0.00 | 95 | 1010.7 |
| 20260902035325 | 59 | 211 | 8.0 | 18.0 | 0.00 | 0.00 | 0.00 | 95 | 1010.7 |
| 20260902034949 | 59 | 200 | 10.0 | 18.0 | 0.00 | 0.00 | 0.00 | 94 | 1010.6 |
| 20260902034818 | 59 | 246 | 4.0 | 15.0 | 0.00 | 0.00 | 0.00 | 94 | 1010.7 |
| 20260902034432 | 59 | 229 | 4.0 | 15.0 | 0.00 | 0.00 | 0.00 | 94 | 1010.6 |
| 20260902034311 | 59 | 229 | 7.0 | 15.0 | 0.00 | 0.00 | 0.00 | 94 | 1010.6 |
| 20260902033915 | 59 | 233 | 9.0 | 15.0 | 0.00 | 0.00 | 0.00 | 94 | 1010.6 |
| 20260902033804 | 59 | 155 | 9.0 | 15.0 | 0.00 | 0.00 | 0.00 | 93 | 1010.6 |
| 20260902033358 | 59 | 155 | 11.0 | 15.0 | 0.00 | 0.00 | 0.00 | 93 | 1010.6 |
| 20260902033257 | 59 | 184 | 11.0 | 15.0 | 0.00 | 0.00 | 0.00 | 93 | 1010.7 |
| 20260902032841 | 59 | 208 | 3.0 | 14.0 | 0.00 | 0.00 | 0.00 | 93 | 1010.7 |
| 20260902032750 | 59 | 190 | 8.0 | 14.0 | 0.00 | 0.00 | 0.00 | 93 | 1010.6 |
| 20260902032324 | 59 | 207 | 2.0 | 14.0 | 0.00 | 0.00 | 0.00 | 93 | 1010.7 |
| 20260902032243 | 59 | 212 | 10.0 | 14.0 | 0.00 | 0.00 | 0.00 | 93 | 1010.7 |
| 20260902031807 | 59 | 203 | 9.0 | 12.0 | 0.00 | 0.00 | 0.00 | 93 | 1010.7 |
| 20260902031736 | 59 | 211 | 7.0 | 12.0 | 0.00 | 0.00 | 0.00 | 93 | 1010.7 |